User: anonymous   Login
Location: Unspecified
(0.0000°N, 0.0000°E)
Time: 08:02:01
(UTC+00:00)
Language:

ELFIN A - Orbit

View from above orbital plane
View from above orbital plane
View from above satellite
View from above satellite

Ground track
Ground track

The orbit data is extracted from the following two-line orbital elements,

1 43617U 18070E   20223.61365837  .00004169  00000-0  10116-3 0  9997
2 43617  93.0255 177.4906 0017614 119.7052 240.5959 15.40916580106869
Epoch (UTC): 10 August 2020 14:43:40
Eccentricity: 0.0017614
inclination: 93.0255°
perigee height: 431 km
apogee height: 455 km
right ascension of ascending node: 177.4906°
argument of perigee: 119.7052°
revolutions per day: 15.40916580
mean anomaly at epoch: 240.5959°
orbit number at epoch: 10686

The dashed part of the orbit path shows where the satellite is in the earth's shadow,  

DLR